TimeEST,TemperatureF,Dew PointF,Humidity,Sea Level PressureIn,VisibilityMPH,Wind Direction,Wind SpeedMPH,Gust SpeedMPH,PrecipitationIn,Events,Conditions,WindDirDegrees,DateUTC
12:15 AM,37.4,37.4,100,30.07,10.0,WSW,5.8,-,N/A,,Scattered Clouds,240,2013-02-03 05:15:00
12:35 AM,37.4,37.4,100,30.06,10.0,WSW,6.9,-,N/A,,Mostly Cloudy,240,2013-02-03 05:35:00
12:55 AM,37.4,37.4,100,30.05,10.0,SW,4.6,-,N/A,,Overcast,230,2013-02-03 05:55:00
1:15 AM,37.4,37.4,100,30.04,10.0,SW,4.6,-,N/A,,Overcast,230,2013-02-03 06:15:00
1:35 AM,37.4,37.4,100,30.03,10.0,SSW,4.6,-,N/A,,Mostly Cloudy,210,2013-02-03 06:35:00
1:55 AM,37.4,37.4,100,30.02,10.0,WSW,3.5,-,N/A,,Clear,250,2013-02-03 06:55:00
2:15 AM,35.6,35.6,100,30.01,10.0,Calm,Calm,-,N/A,,Clear,0,2013-02-03 07:15:00
2:35 AM,35.6,35.6,100,30.01,10.0,Calm,Calm,-,N/A,,Scattered Clouds,0,2013-02-03 07:35:00
2:55 AM,35.6,35.6,100,30.01,10.0,Calm,Calm,-,N/A,Rain,Light Rain,0,2013-02-03 07:55:00
3:15 AM,37.4,37.4,100,30.00,10.0,WSW,3.5,-,N/A,Rain,Light Rain,240,2013-02-03 08:15:00
3:35 AM,37.4,37.4,100,29.99,10.0,WSW,6.9,-,N/A,Rain,Light Rain,240,2013-02-03 08:35:00
3:55 AM,39.2,39.2,100,29.98,10.0,WSW,6.9,-,N/A,Rain,Light Rain,250,2013-02-03 08:55:00
4:15 AM,37.4,37.4,100,29.97,10.0,WSW,8.1,-,N/A,Rain,Light Rain,240,2013-02-03 09:15:00
4:35 AM,37.4,37.4,100,29.97,10.0,SW,4.6,-,N/A,Rain,Light Rain,230,2013-02-03 09:35:00
4:55 AM,35.6,35.6,100,29.97,10.0,WSW,4.6,-,N/A,Rain,Light Rain,250,2013-02-03 09:55:00
5:15 AM,35.6,35.6,100,29.97,10.0,WSW,4.6,-,N/A,Rain,Light Rain,240,2013-02-03 10:15:00
5:35 AM,33.8,33.8,100,29.98,5.0,Calm,Calm,-,N/A,Rain,Light Rain,0,2013-02-03 10:35:00
5:55 AM,33.8,33.8,100,29.98,4.0,Calm,Calm,-,N/A,Rain,Light Rain,0,2013-02-03 10:55:00
6:15 AM,33.8,33.8,100,29.98,5.0,WSW,4.6,-,N/A,Rain,Light Rain,240,2013-02-03 11:15:00
6:35 AM,32.0,32.0,100,29.99,7.0,West,5.8,-,N/A,Rain,Light Rain,260,2013-02-03 11:35:00
6:55 AM,32.0,32.0,100,30.00,10.0,WSW,5.8,-,N/A,Rain,Light Rain,250,2013-02-03 11:55:00
7:15 AM,32.0,32.0,100,30.00,10.0,WSW,4.6,-,N/A,Rain,Light Rain,250,2013-02-03 12:15:00
7:35 AM,32.0,32.0,100,30.01,8.0,WSW,4.6,-,N/A,Rain,Light Rain,240,2013-02-03 12:35:00
8:15 AM,32.0,32.0,100,30.01,10.0,SW,3.5,-,N/A,Rain,Light Rain,230,2013-02-03 13:15:00
8:35 AM,33.8,33.8,100,30.01,10.0,WSW,5.8,-,N/A,Rain,Light Rain,240,2013-02-03 13:35:00
8:55 AM,35.6,33.8,93,30.02,10.0,SW,8.1,-,N/A,Rain,Light Rain,230,2013-02-03 13:55:00
9:15 AM,37.4,33.8,87,30.02,10.0,WSW,8.1,-,N/A,Rain,Light Rain,240,2013-02-03 14:15:00
9:35 AM,39.2,35.6,87,30.01,10.0,West,5.8,-,N/A,Rain,Light Rain,260,2013-02-03 14:35:00
9:55 AM,41.0,32.0,70,30.01,10.0,WSW,10.4,-,N/A,Rain,Light Rain,250,2013-02-03 14:55:00
10:15 AM,42.8,33.8,70,30.00,10.0,SSW,5.8,-,N/A,,Clear,210,2013-02-03 15:15:00
10:35 AM,44.6,35.6,71,30.00,10.0,SW,4.6,-,N/A,,Clear,220,2013-02-03 15:35:00
10:55 AM,46.4,32.0,57,29.99,10.0,WSW,10.4,-,N/A,,Clear,240,2013-02-03 15:55:00
11:15 AM,48.2,32.0,54,29.99,10.0,WSW,15.0,20.7,N/A,,Clear,250,2013-02-03 16:15:00
11:35 AM,48.2,32.0,54,29.98,10.0,WSW,17.3,23.0,N/A,,Clear,240,2013-02-03 16:35:00
12:15 PM,50.0,32.0,50,29.95,10.0,WSW,16.1,20.7,N/A,,Clear,250,2013-02-03 17:15:00
12:35 PM,50.0,32.0,50,29.93,10.0,WSW,17.3,24.2,N/A,,Partly Cloudy,250,2013-02-03 17:35:00
12:55 PM,50.0,32.0,50,29.92,10.0,WSW,15.0,24.2,N/A,,Clear,250,2013-02-03 17:55:00
1:15 PM,53.6,32.0,44,29.91,10.0,WNW,13.8,18.4,N/A,,Clear,300,2013-02-03 18:15:00
1:35 PM,53.6,30.2,41,29.91,10.0,West,10.4,21.9,N/A,,Scattered Clouds,280,2013-02-03 18:35:00
1:55 PM,51.8,30.2,44,29.90,10.0,West,10.4,19.6,N/A,,Partly Cloudy,270,2013-02-03 18:55:00
2:15 PM,50.0,28.4,43,29.89,10.0,West,9.2,-,N/A,,Mostly Cloudy,280,2013-02-03 19:15:00
2:35 PM,50.0,28.4,43,29.89,10.0,West,11.5,17.3,N/A,,Overcast,280,2013-02-03 19:35:00
2:55 PM,50.0,28.4,43,29.89,10.0,WNW,6.9,-,N/A,,Overcast,300,2013-02-03 19:55:00
3:15 PM,53.6,28.4,38,29.89,10.0,WSW,12.7,18.4,N/A,Rain,Light Rain,240,2013-02-03 20:15:00
3:35 PM,55.4,28.4,36,29.89,10.0,SW,17.3,23.0,N/A,Rain,Light Rain,230,2013-02-03 20:35:00
3:55 PM,53.6,28.4,38,29.90,10.0,West,15.0,21.9,N/A,,Scattered Clouds,260,2013-02-03 20:55:00
4:15 PM,51.8,28.4,41,29.90,10.0,WSW,11.5,19.6,N/A,,Partly Cloudy,250,2013-02-03 21:15:00
4:35 PM,51.8,28.4,41,29.90,10.0,WSW,12.7,-,N/A,,Clear,250,2013-02-03 21:35:00
5:15 PM,53.6,28.4,38,29.91,10.0,WSW,8.1,-,N/A,,Scattered Clouds,240,2013-02-03 22:15:00
5:35 PM,53.6,28.4,38,29.91,10.0,West,11.5,-,N/A,,Scattered Clouds,260,2013-02-03 22:35:00
5:55 PM,50.0,28.4,43,29.92,10.0,WSW,6.9,-,N/A,,Scattered Clouds,240,2013-02-03 22:55:00
6:15 PM,48.2,28.4,46,29.93,10.0,WSW,5.8,-,N/A,,Clear,250,2013-02-03 23:15:00
6:35 PM,46.4,28.4,50,29.94,10.0,Calm,Calm,-,N/A,,Clear,0,2013-02-03 23:35:00
6:55 PM,44.6,26.6,49,29.95,10.0,WNW,4.6,-,N/A,,Clear,290,2013-02-03 23:55:00
7:15 PM,46.4,24.8,43,29.97,10.0,NW,4.6,-,N/A,,Clear,320,2013-02-04 00:15:00
7:35 PM,46.4,23.0,40,29.98,10.0,WNW,5.8,-,N/A,,Clear,300,2013-02-04 00:35:00
7:55 PM,44.6,21.2,39,29.99,10.0,WNW,4.6,-,N/A,,Clear,300,2013-02-04 00:55:00
8:15 PM,44.6,23.0,43,30.00,10.0,Calm,Calm,-,N/A,,Clear,0,2013-02-04 01:15:00
8:35 PM,41.0,23.0,49,30.00,10.0,WNW,3.5,-,N/A,,Clear,290,2013-02-04 01:35:00
8:55 PM,39.2,23.0,52,30.01,10.0,West,3.5,-,N/A,,Clear,280,2013-02-04 01:55:00
9:15 PM,35.6,24.8,65,30.01,10.0,Calm,Calm,-,N/A,,Clear,0,2013-02-04 02:15:00
9:35 PM,33.8,24.8,70,30.02,10.0,Calm,Calm,-,N/A,,Clear,0,2013-02-04 02:35:00
9:55 PM,32.0,24.8,75,30.02,10.0,Calm,Calm,-,N/A,,Clear,0,2013-02-04 02:55:00
10:15 PM,32.0,24.8,75,30.02,10.0,Calm,Calm,-,N/A,,Clear,0,2013-02-04 03:15:00
10:35 PM,30.2,26.6,86,30.02,10.0,Calm,Calm,-,N/A,,Clear,0,2013-02-04 03:35:00
10:55 PM,28.4,26.6,93,30.02,10.0,Calm,Calm,-,N/A,,Clear,0,2013-02-04 03:55:00
11:15 PM,28.4,26.6,93,30.02,10.0,Calm,Calm,-,N/A,,Clear,0,2013-02-04 04:15:00
11:35 PM,28.4,26.6,93,30.03,10.0,Calm,Calm,-,N/A,,Clear,0,2013-02-04 04:35:00